Cloud_Cover
5 24 100 31 5 5 5 5 72 55 5 0 5 5 0 5 5 3 0 0 0 0 0 0 0 0 0 7 13 1 13 95 99 36 59 81 70 100 100 98 88 100 100 100
60 100 100 100 96 36 5 5 75 71 5 0 0 5 5 0 5 5 10 0 0 0 0 0 0 0 0 7 11 4 4 32 75 30 0 1 95 68 100 100 89 100 96 32
100 100 100 100 100 100 62 78 99 19 19 0 0 2 8 53 4 0 5 5 0 0 0 0 0 0 0 7 20 7 1 4 20 33 52 75 100 68 96 100 100 100 81 20
100 100 100 100 100 100 71 84 49 12 3 0 0 0 34 100 100 84 3 0 5 4 0 0 0 0 0 0 2 0 0 6 25 48 50 7 4 5 81 100 100 100 98 89
100 100 100 100 100 100 100 100 40 5 0 0 0 0 91 100 100 100 5 0 0 5 4 0 0 0 0 0 11 0 0 2 24 24 28 33 100 35 29 97 100 100 100 100
100 100 100 100 100 100 100 53 28 5 0 0 0 0 57 97 100 100 49 0 0 0 0 0 0 0 0 0 18 15 2 29 27 29 81 98 100 99 46 8 100 100 99 77
100 100 100 100 100 100 100 100 9 2 0 0 0 0 40 87 89 65 98 4 0 0 0 0 0 0 0 6 27 26 11 48 37 24 56 97 100 100 87 14 51 83 76 86
100 100 100 100 100 100 100 90 43 10 3 0 0 0 0 8 43 6 5 57 4 3 2 4 5 5 5 5 8 29 24 44 75 42 50 100 100 100 100 100 100 100 100 100
100 100 100 100 100 100 100 100 100 87 27 12 0 0 0 0 14 4 0 9 98 36 6 5 5 5 5 5 11 53 87 100 100 95 100 100 100 100 100 100 100 100 100 90
100 100 100 100 100 100 100 65 40 14 1 4 0 0 0 5 5 10 0 3 5 5 5 5 4 0 5 5 5 6 5 8 16 68 87 92 100 100 100 100 100 100 87 75
100 100 92 51 61 73 24 5 4 11 2 5 4 0 0 5 5 5 5 5 5 5 5 5 5 5 5 5 5 5 5 5 5 5 29 54 74 100 100 94 54 85 38 46
100 100 8 5 5 5 5 4 5 5 5 79 2 0 5 0 3 5 0 5 2 5 20 5 5 5 5 4 5 5 5 8 6 5 5 31 35 68 96 20 5 5 5 5
100 100 21 6 30 53 60 100 100 100 88 5 2 1 81 0 3 5 0 0 0 0 0 3 14 9 5 5 5 5 5 5 12 63 54 59 62 99 73 10 6 10 17 72
100 100 100 49 63 36 32 9 49 99 8 4 0 2 5 78 5 5 0 0 0 0 0 5 5 16 80 92 95 75 16 5 5 13 29 45 36 80 86 95 82 57 67 98
100 100 100 100 100 100 47 21 94 43 4 7 0 1 93 100 96 4 4 1 2 0 1 5 5 8 47 50 8 5 5 10 5 43 68 92 100 100 100 99 88 100 98 100
100 100 100 100 96 100 84 51 93 100 15 82 64 19 100 100 99 6 6 3 1 0 4 0 0 0 0 5 5 5 6 71 66 95 95 100 100 100 100 100 100 100 100 100
100 100 100 100 98 100 100 6 8 75 26 5 4 54 100 100 100 98 98 100 73 14 5 3 0 0 5 5 5 13 11 58 68 45 93 100 100 100 100 100 100 100 100 100
100 100 100 100 94 100 16 92 18 42 40 22 27 100 100 100 100 100 100 100 100 100 30 4 5 9 5 5 6 32 6 32 67 78 98 100 100 100 100 100 100 100 100 100
100 100 100 100 100 94 11 5 5 58 31 78 6 70 100 100 100 100 100 100 100 45 75 6 5 97 100 73 67 80 99 100 100 100 100 100 100 100 100 100 100 100 100 100
100 100 100 100 100 99 1 73 100 100 53 97 99 24 93 99 45 98 100 100 100 57 7 42 97 51 63 90 100 100 100 100 100 100 100 100 100 100 100 100 100 100 100 100
100 100 100 100 100 100 30 17 8 95 23 19 100 100 100 78 55 83 100 100 100 100 100 99 100 100 100 100 100 100 96 100 100 100 100 100 100 100 100 100 100 100 100 100
100 100 100 100 100 99 20 43 85 81 100 35 28 45 96 82 91 100 58 44 43 36 74 99 100 100 96 98 98 83 74 100 100 100 100 100 100 100 100 100 100 100 100 100
100 100 100 100 100 100 100 100 100 100 100 99 30 5 5 5 61 85 91 99 91 84 88 100 95 76 76 74 93 97 100 100 100 100 100 100 100 100 100 100 100 100 100 100
100 100 100 100 100 100 100 100 100 100 100 100 100 100 100 100 100 100 100 100 97 100 100 100 100 100 100 100 100 100 100 100 100 100 100 100 100 100 100 100 100 100 100 100
100 100 100 100 100 100 100 100 100 100 100 100 100 100 100 100 100 100 100 100 100 100 99 89 100 100 100 100 100 100 100 100 100 100 100 100 100 100 100 100 100 100 100 100
100 100 100 100 100 100 100 100 100 100 100 100 100 100 100 100 100 100 100 100 100 100 100 100 100 100 100 100 100 100 100 100 100 100 100 100 100 100 100 100 100 100 100 100